Tracking 20712 objects as of 29-May-2020
HD Live streaming from Space Station
objects crossing your sky now

IRIDIUM 33 DEB

Track IRIDIUM 33 DEB now!
10-day predictions


NORAD ID: 35851
Int'l Code: 1997-051TB
Perigee: 639.1 km
Apogee: 743.2 km
Inclination: 86.4 °
Period: 98.4 minutes
Semi major axis: 7062 km
RCS: 0.009 m2 (small)
Launch date: September 14, 1997
Source: United States (US)
Launch site: TYURATAM MISSILE AND SPACE COMPLEX (TTMTR)

Note: This is SATELLITE DEBRIS
aabbcc
Your satellite tracking list
Your tracking list is empty




NASA's NSSDC Master Catalog

Two Line Element Set (TLE):
1 35851U 97051TB  20148.88549867  .00003416  00000-0  63903-3 0  9992
2 35851  86.4178 198.1070 0073650 204.8291 154.9372 14.62844554585834
Source of the keplerian elements: AFSPC